This is the latest recevied weather packets stored in our database for station/object CQ0XVC-11. If no packets are shown the sender has not sent any weather packets the latest 10 day(s).
| Time | Temp. | Humidity | Pressure | Rain* | Wind** | Luminosity | Snow |
|---|---|---|---|---|---|---|---|
| 1777828933 | 16.11° C | 54% | 1000.6 hPa | 0 mm | - | - | - |
| 1777828630 | 16.11° C | 53% | 1000.6 hPa | 0 mm | - | - | - |
| 1777828329 | 16.11° C | 54% | 1000.5 hPa | 0 mm | - | - | - |
| 1777828026 | 16.67° C | 53% | 1000.6 hPa | 0 mm | - | - | - |
| 1777827759 | 16.67° C | 53% | 1000.3 hPa | 0 mm | - | - | - |
| 1777827724 | 16.67° C | 53% | 1000.3 hPa | 0 mm | - | - | - |
| 1777827469 | 16.67° C | 55% | 1000.3 hPa | 0 mm | - | - | - |
| 1777827422 | 16.67° C | 55% | 1000.3 hPa | 0 mm | - | - | - |
| 1777827155 | 16.11° C | 56% | 1000.3 hPa | 0 mm | - | - | - |
| 1777827120 | 16.11° C | 56% | 1000.3 hPa | 0 mm | - | - | - |
| 1777826817 | 16.11° C | 57% | 1000.2 hPa | 0 mm | - | - | - |
| 1777826563 | 15.56° C | 57% | 1000.2 hPa | 0 mm | - | - | - |
| 1777826516 | 15.56° C | 57% | 1000.2 hPa | 0 mm | - | - | - |
| 1777826213 | 15.56° C | 61% | 1000.3 hPa | 0 mm | - | - | - |
| 1777825952 | 15.56° C | 68% | 1000.3 hPa | 0 mm | - | - | - |
| 1777825911 | 15.56° C | 68% | 1000.3 hPa | 0 mm | - | - | - |
| 1777825639 | 15.56° C | 69% | 1000.3 hPa | 0 mm | - | - | - |
| 1777825608 | 15.56° C | 69% | 1000.3 hPa | 0 mm | - | - | - |
| 1777825342 | 15° C | 70% | 1000.1 hPa | 0 mm | - | - | - |
| 1777825307 | 15° C | 70% | 1000.1 hPa | 0 mm | - | - | - |
| 1777825004 | 15° C | 70% | 1000.2 hPa | 0 mm | - | - | - |
| 1777824747 | 14.44° C | 69% | 1000.3 hPa | 0 mm | - | - | - |
| 1777824703 | 14.44° C | 69% | 1000.3 hPa | 0 mm | - | - | - |
| 1777824400 | 14.44° C | 69% | 1000.3 hPa | 0 mm | - | - | - |
| 1777824098 | 13.89° C | 70% | 1000.4 hPa | 0 mm | - | - | - |
* Rain since midnight (hover to see other rain measurements)
** Current wind speed in m/s (hover to see current wind gust speed)